When you browse on this site, cookies collect data to enhance your experience and personalize the content and advertising you see.
Visit our Privacy Policy to learn more. By continuing to use the site, you agree to this use of cookies and data.
  • In Switzerland
  • List of Countries
  • For 7 days
  • Water Temperature
  • Weather Map
  • Weather Widgets
  • user-avatar
    Login

    Hourly Weather Grekovo

    Today, 29 May, Friday

    Time Temperature Precipitation Wind Pressure Humidity
    00:00 +13°C° 0 mm 4 mps 745 mmHg 88%
    01:00 +13°C° 0 mm 5 mps 745 mmHg 89%
    02:00 +13°C° 0 mm 5 mps 744 mmHg 91%
    03:00 +14°C° 0 mm 4 mps 744 mmHg 89%
    04:00 +14°C° 0.8 mm 4 mps 743 mmHg 91%
    05:00 +14°C° 0.8 mm 5 mps 743 mmHg 94%
    06:00 +15°C° 0.8 mm 5 mps 743 mmHg 96%
    07:00 +16°C° 0.6 mm 5 mps 743 mmHg 95%
    08:00 +16°C° 0.6 mm 5 mps 743 mmHg 93%
    09:00 +17°C° 0 mm 5 mps 743 mmHg 91%
    10:00 +19°C° 0.1 mm 5 mps 743 mmHg 89%
    11:00 +20°C° 0.1 mm 5 mps 742 mmHg 86%
    12:00 +21°C° 0.1 mm 5 mps 742 mmHg 83%
    13:00 +22°C° 0.6 mm 6 mps 742 mmHg 80%
    14:00 +23°C° 0.6 mm 6 mps 742 mmHg 77%
    15:00 +25°C° 0 mm 5 mps 742 mmHg 73%
    16:00 +23°C° 1.2 mm 5 mps 741 mmHg 77%
    17:00 +23°C° 1.2 mm 5 mps 741 mmHg 80%
    18:00 +22°C° 1.2 mm 5 mps 740 mmHg 84%
    19:00 +21°C° 1.2 mm 4 mps 740 mmHg 86%
    20:00 +20°C° 1.2 mm 3 mps 740 mmHg 88%
    21:00 +19°C° 1.2 mm 3 mps 740 mmHg 91%
    22:00 +18°C° 1.1 mm 3 mps 740 mmHg 92%
    23:00 +18°C° 1.1 mm 3 mps 739 mmHg 93%

    Tomorrow, 30 May, Saturday

    Time Temperature Precipitation Wind Pressure Humidity
    00:00 +18°C° 1.1 mm 3 mps 739 mmHg 94%
    01:00 +17°C° 0.1 mm 3 mps 739 mmHg 95%
    02:00 +17°C° 0.1 mm 3 mps 739 mmHg 95%
    03:00 +16°C° 0.1 mm 3 mps 739 mmHg 95%
    04:00 +15°C° 0 mm 4 mps 738 mmHg 95%
    05:00 +15°C° 0 mm 4 mps 738 mmHg 94%
    06:00 +17°C° 0 mm 4 mps 738 mmHg 94%
    07:00 +18°C° 0 mm 4 mps 737 mmHg 91%
    08:00 +19°C° 0 mm 5 mps 737 mmHg 88%
    09:00 +20°C° 0 mm 5 mps 737 mmHg 85%
    10:00 +21°C° 0 mm 6 mps 736 mmHg 81%
    11:00 +22°C° 0 mm 7 mps 736 mmHg 78%
    12:00 +22°C° 0 mm 7 mps 735 mmHg 74%
    13:00 +21°C° 0.2 mm 7 mps 735 mmHg 79%
    14:00 +20°C° 0.2 mm 6 mps 735 mmHg 84%
    15:00 +19°C° 0.2 mm 6 mps 736 mmHg 89%
    16:00 +17°C° 0.3 mm 5 mps 735 mmHg 88%
    17:00 +18°C° 0.3 mm 4 mps 735 mmHg 88%
    18:00 +18°C° 0.3 mm 4 mps 735 mmHg 87%
    19:00 +17°C° 0 mm 3 mps 735 mmHg 90%
    20:00 +16°C° 0 mm 3 mps 736 mmHg 92%
    21:00 +15°C° 0 mm 2 mps 736 mmHg 95%
    22:00 +14°C° 0 mm 2 mps 736 mmHg 95%
    23:00 +14°C° 0 mm 2 mps 736 mmHg 95%

    Day after tomorrow, 31 May, Sunday

    Time Temperature Precipitation Wind Pressure Humidity
    00:00 +13°C° 0 mm 2 mps 736 mmHg 95%
    01:00 +13°C° 0 mm 2 mps 736 mmHg 95%
    02:00 +13°C° 0 mm 2 mps 736 mmHg 95%
    03:00 +12°C° 0 mm 2 mps 736 mmHg 95%
    04:00 +13°C° 0 mm 2 mps 736 mmHg 95%
    05:00 +12°C° 0 mm 3 mps 735 mmHg 95%
    06:00 +12°C° 0 mm 3 mps 735 mmHg 95%
    07:00 +13°C° 0.1 mm 3 mps 735 mmHg 93%
    08:00 +14°C° 0.1 mm 4 mps 735 mmHg 90%
    09:00 +15°C° 0.1 mm 4 mps 735 mmHg 88%
    10:00 +15°C° 0.2 mm 5 mps 735 mmHg 87%
    11:00 +15°C° 0.2 mm 5 mps 736 mmHg 87%
    12:00 +15°C° 0.2 mm 6 mps 736 mmHg 86%
    13:00 +15°C° 0.4 mm 6 mps 736 mmHg 84%
    14:00 +16°C° 0.4 mm 6 mps 736 mmHg 82%
    15:00 +17°C° 0.4 mm 7 mps 736 mmHg 80%
    16:00 +16°C° 1 mm 6 mps 736 mmHg 82%
    17:00 +15°C° 1 mm 5 mps 736 mmHg 85%
    18:00 +14°C° 1 mm 5 mps 736 mmHg 88%
    19:00 +13°C° 0.5 mm 5 mps 736 mmHg 90%
    20:00 +12°C° 0.5 mm 5 mps 736 mmHg 92%
    21:00 +9°C° 0.5 mm 5 mps 736 mmHg 94%
    22:00 +9°C° 0.1 mm 5 mps 736 mmHg 94%
    23:00 +10°C° 0.1 mm 4 mps 736 mmHg 94%

    1 June, Monday

    Time Temperature Precipitation Wind Pressure Humidity
    00:00 +10°C° 0.1 mm 4 mps 736 mmHg 94%
    01:00 +8°C° 1 mm 5 mps 736 mmHg 94%
    02:00 +8°C° 1 mm 5 mps 736 mmHg 95%
    03:00 +8°C° 1 mm 6 mps 736 mmHg 95%
    04:00 +8°C° 1.1 mm 6 mps 736 mmHg 95%
    05:00 +8°C° 1.1 mm 5 mps 736 mmHg 95%
    06:00 +8°C° 1.1 mm 5 mps 736 mmHg 95%
    07:00 +7°C° 0.9 mm 5 mps 737 mmHg 95%
    08:00 +7°C° 0.9 mm 5 mps 737 mmHg 95%
    09:00 +7°C° 0.9 mm 5 mps 737 mmHg 95%
    10:00 +8°C° 0.8 mm 5 mps 737 mmHg 95%
    11:00 +8°C° 0.8 mm 5 mps 738 mmHg 95%
    12:00 +8°C° 0.8 mm 5 mps 738 mmHg 94%
    13:00 +8°C° 0.3 mm 5 mps 738 mmHg 94%
    14:00 +8°C° 0.3 mm 5 mps 738 mmHg 93%
    15:00 +8°C° 0.3 mm 5 mps 738 mmHg 93%
    16:00 +8°C° 0.2 mm 4 mps 738 mmHg 93%
    17:00 +8°C° 0.2 mm 4 mps 738 mmHg 93%
    18:00 +10°C° 0.2 mm 4 mps 738 mmHg 93%
    19:00 +8°C° 0 mm 4 mps 739 mmHg 94%
    20:00 +8°C° 0 mm 4 mps 739 mmHg 94%
    21:00 +8°C° 0 mm 4 mps 739 mmHg 95%
    22:00 +8°C° 0.1 mm 4 mps 739 mmHg 95%
    23:00 +8°C° 0.1 mm 4 mps 739 mmHg 96%

    2 June, Tuesday

    Time Temperature Precipitation Wind Pressure Humidity
    00:00 +8°C° 0.1 mm 4 mps 739 mmHg 96%
    01:00 +8°C° 0.2 mm 4 mps 739 mmHg 96%
    02:00 +8°C° 0.2 mm 4 mps 739 mmHg 97%
    03:00 +8°C° 0.2 mm 4 mps 739 mmHg 97%
    04:00 +8°C° 0 mm 4 mps 739 mmHg 97%
    05:00 +10°C° 0 mm 4 mps 739 mmHg 97%
    06:00 +10°C° 0 mm 4 mps 739 mmHg 96%
    07:00 +9°C° 0 mm 5 mps 739 mmHg 96%
    08:00 +9°C° 0 mm 5 mps 739 mmHg 95%
    09:00 +10°C° 0 mm 5 mps 739 mmHg 95%
    10:00 +10°C° 0.2 mm 5 mps 739 mmHg 94%
    11:00 +10°C° 0.2 mm 5 mps 740 mmHg 93%
    12:00 +10°C° 0.2 mm 5 mps 740 mmHg 93%
    13:00 +12°C° 0.1 mm 5 mps 740 mmHg 93%
    14:00 +12°C° 0.1 mm 5 mps 740 mmHg 92%
    15:00 +12°C° 0.1 mm 4 mps 740 mmHg 92%
    16:00 +12°C° 0 mm 4 mps 740 mmHg 92%
    17:00 +13°C° 0 mm 4 mps 740 mmHg 92%
    18:00 +13°C° 0 mm 4 mps 740 mmHg 92%
    19:00 +13°C° 0 mm 4 mps 739 mmHg 93%
    20:00 +13°C° 0 mm 4 mps 739 mmHg 94%
    21:00 +12°C° 0 mm 4 mps 739 mmHg 94%
    22:00 +12°C° 0 mm 4 mps 739 mmHg 96%
    23:00 +11°C° 0 mm 3 mps 739 mmHg 97%

    3 June, Wednesday

    Time Temperature Precipitation Wind Pressure Humidity
    00:00 +10°C° 0 mm 3 mps 739 mmHg 98%
    01:00 +10°C° 0 mm 3 mps 739 mmHg 98%
    02:00 +11°C° 0 mm 3 mps 739 mmHg 97%
    03:00 +11°C° 0 mm 3 mps 739 mmHg 97%
    04:00 +11°C° 0 mm 3 mps 739 mmHg 97%
    05:00 +12°C° 0 mm 3 mps 739 mmHg 96%
    06:00 +12°C° 0 mm 3 mps 739 mmHg 96%
    07:00 +13°C° 0 mm 3 mps 739 mmHg 93%
    08:00 +14°C° 0 mm 3 mps 739 mmHg 90%
    09:00 +16°C° 0 mm 3 mps 739 mmHg 87%
    10:00 +16°C° 0 mm 3 mps 739 mmHg 85%
    11:00 +17°C° 0 mm 3 mps 739 mmHg 83%
    12:00 +18°C° 0 mm 3 mps 739 mmHg 80%
    13:00 +18°C° 0.1 mm 3 mps 739 mmHg 80%
    14:00 +19°C° 0.1 mm 3 mps 739 mmHg 80%
    15:00 +19°C° 0.1 mm 3 mps 739 mmHg 80%
    16:00 +19°C° 0.7 mm 3 mps 739 mmHg 81%
    17:00 +19°C° 0.7 mm 3 mps 739 mmHg 82%
    18:00 +19°C° 0.7 mm 3 mps 739 mmHg 83%
    19:00 +18°C° 0.1 mm 3 mps 739 mmHg 85%
    20:00 +17°C° 0.1 mm 3 mps 739 mmHg 87%
    21:00 +16°C° 0.1 mm 3 mps 739 mmHg 90%
    22:00 +14°C° 0.1 mm 3 mps 739 mmHg 91%
    23:00 +13°C° 0.1 mm 3 mps 739 mmHg 92%
    Show more